Wind_Speed
96 97 98 99 100 101 103 105 106 108 110 111 112 114 115 116 117 118 119 120 120 121 122 122 123 123 123 124 124 124 124 125 125 125 126 126 127 128 128 129 129 130 131 131 132 133 133 134 134 135 136 136 137 137 137 138 138 138 138 138 138 138 138 138 138 138 138 137 137 136 135 133 132 131 130 130 129 129 129 129 128 128 128 128 128 127
97 98 99 100 102 103 105 107 108 110 111 113 114 115 116 117 117 118 119 119 120 120 120 120 120 120 120 120 121 121 121 121 121 122 122 122 123 123 124 124 125 126 126 127 127 128 129 130 130 131 132 132 133 134 134 135 135 135 136 136 136 137 137 137 138 138 138 138 138 138 137 136 135 134 133 132 132 131 131 131 130 130 130 130 130 129
99 100 102 103 104 106 108 109 110 111 113 114 114 115 116 116 117 117 117 118 118 118 117 117 117 117 117 117 117 117 117 117 117 117 117 117 118 118 119 119 120 120 121 121 122 123 123 124 125 126 126 127 128 129 130 130 131 131 132 133 133 134 134 135 136 136 136 137 137 137 137 137 137 136 135 134 134 133 132 132 132 132 132 132 131 131
101 103 105 106 107 108 110 111 112 113 114 114 114 115 115 115 115 116 116 116 115 115 114 114 113 113 113 113 113 113 112 112 112 112 112 112 112 112 113 113 113 114 114 115 115 116 117 117 118 119 120 121 122 123 124 125 125 126 127 128 128 129 130 131 132 133 133 134 135 136 136 136 136 136 136 135 135 134 134 133 133 133 133 133 133 133
104 106 107 109 110 111 112 112 113 114 114 114 114 113 113 114 114 113 113 113 112 111 111 110 109 109 109 109 108 107 107 106 106 106 106 106 106 106 106 106 107 107 107 108 108 109 110 110 111 112 113 114 115 116 117 118 119 120 121 122 123 124 125 126 127 128 129 130 131 132 133 133 134 134 135 134 134 134 133 133 133 133 133 133 133 133
108 109 110 111 111 112 113 113 114 114 113 113 112 112 112 111 111 111 110 109 108 107 106 106 105 105 104 103 103 102 101 101 100 100 100 99 99 99 99 100 100 100 101 101 102 102 103 104 104 105 106 107 107 108 109 110 112 113 114 115 116 117 118 119 121 122 123 125 126 127 128 129 130 131 131 132 132 132 132 132 132 132 132 132 132 132
110 111 111 112 112 113 113 113 113 113 112 112 111 110 109 109 108 107 106 105 104 103 102 101 100 99 99 98 97 96 96 95 95 94 94 94 93 93 93 94 94 94 95 96 96 97 97 98 98 99 99 100 101 102 103 104 105 106 107 108 109 110 111 113 114 115 117 118 120 121 122 124 125 126 127 127 128 128 129 129 129 129 130 130 130 131
112 113 113 113 113 112 112 112 112 111 110 109 108 107 106 105 104 103 102 100 99 98 97 96 95 94 93 92 92 91 90 90 89 89 89 88 88 88 88 88 89 89 90 90 91 91 92 92 93 93 94 94 95 96 97 98 99 99 100 101 102 103 104 106 107 108 110 111 112 114 116 117 119 120 121 122 123 124 124 125 125 126 126 127 127 128
113 113 113 113 112 112 111 111 109 108 107 106 105 104 102 101 100 98 97 96 95 93 92 91 90 89 89 88 87 86 86 85 85 84 84 84 83 83 83 84 84 84 85 86 86 87 87 88 88 88 89 90 90 91 92 92 93 94 95 96 96 97 98 99 100 102 103 104 106 107 109 110 112 113 115 116 117 118 119 120 121 122 122 123 124 124
113 113 112 112 110 110 109 108 107 105 104 102 101 99 98 97 95 94 92 91 90 89 88 86 86 85 84 84 83 82 81 81 80 80 80 79 79 79 79 79 80 80 81 81 82 82 83 83 84 84 85 85 86 86 87 88 88 89 90 90 91 92 93 94 95 96 97 98 99 101 102 104 105 107 108 110 111 112 113 114 115 116 117 118 119 120
112 111 111 110 108 107 106 104 103 102 100 98 97 95 94 92 90 89 88 87 86 85 83 82 81 81 80 80 79 78 77 77 76 76 76 75 75 75 75 76 76 76 77 77 78 78 79 79 80 80 80 81 81 82 82 83 83 84 85 85 86 87 88 89 90 91 92 93 94 95 96 97 99 100 101 103 104 106 107 108 109 111 112 113 114 115
111 109 108 107 105 104 102 100 99 97 96 94 93 91 89 88 86 85 83 83 82 81 80 79 78 77 76 76 75 74 74 73 73 72 72 72 72 72 72 72 73 73 73 74 75 75 75 75 76 76 76 77 77 77 78 78 79 80 80 81 82 82 83 84 85 86 87 88 89 90 91 92 93 94 95 97 98 99 101 102 103 105 106 107 108 109
109 107 105 104 102 100 98 97 95 93 91 90 88 87 85 84 82 81 80 79 78 77 76 75 74 74 73 73 72 71 71 70 70 70 70 69 69 69 69 69 70 70 71 71 71 71 72 72 72 72 73 73 73 74 74 74 75 75 76 77 77 78 79 80 81 82 82 83 84 85 86 87 88 89 90 91 93 94 95 96 98 99 100 101 102 104
106 104 102 100 98 96 94 93 91 89 87 85 84 82 81 80 79 77 76 75 74 73 72 72 71 71 70 70 69 68 68 67 67 67 67 67 67 67 66 67 67 67 68 68 68 68 68 68 69 69 69 70 70 70 70 71 71 72 72 73 73 74 75 76 76 77 78 79 80 81 82 82 83 84 85 86 88 89 90 91 92 94 95 96 97 98
103 101 99 97 95 93 91 89 87 85 83 82 80 78 77 76 75 74 73 72 71 70 69 69 68 68 68 68 67 66 65 65 65 65 66 66 65 65 64 64 65 65 65 65 65 65 65 65 66 66 66 67 67 67 67 68 68 68 69 69 70 70 71 72 72 73 74 75 76 77 77 78 79 80 81 82 83 84 85 86 88 89 90 91 92 93
100 98 96 94 92 90 88 85 83 81 80 78 77 75 74 73 72 71 70 69 68 67 67 66 66 66 66 66 65 64 63 62 62 63 63 64 64 63 62 62 62 62 62 62 62 62 62 62 63 63 63 64 64 64 65 65 65 65 65 66 67 67 68 68 69 70 71 71 72 73 73 74 75 76 77 78 79 80 81 82 83 84 85 86 87 89
96 94 93 91 89 86 84 82 80 78 77 75 74 72 71 70 69 68 67 66 66 65 64 64 64 64 64 64 63 62 61 60 60 61 61 62 62 61 60 60 60 60 60 60 59 59 59 60 60 61 61 61 62 62 62 62 62 63 63 63 64 64 65 65 66 66 67 68 68 69 70 70 71 72 73 74 74 75 76 78 79 80 81 82 83 84
92 90 89 87 85 83 81 79 77 76 74 72 71 70 69 68 67 66 65 64 63 62 62 62 62 62 62 62 61 60 59 58 59 59 59 60 60 59 58 58 58 58 58 58 57 57 57 58 58 59 59 59 59 59 60 60 60 60 60 61 61 62 62 63 63 64 64 65 65 66 67 67 68 68 69 70 71 72 72 73 75 76 77 78 79 80
88 86 85 83 81 80 78 76 75 73 71 70 69 68 67 66 65 64 63 62 61 60 60 60 60 60 60 60 59 59 58 57 57 57 57 58 58 57 57 56 56 56 56 55 55 55 55 56 56 57 57 57 57 57 57 58 58 58 58 59 59 59 60 60 60 61 61 62 62 63 63 64 64 65 66 66 67 68 69 70 71 72 73 74 75 76
84 83 81 79 78 76 75 74 72 70 69 68 66 66 65 64 63 62 61 60 59 58 58 58 58 58 57 57 57 57 56 55 55 55 55 56 56 56 55 54 53 54 54 54 53 53 54 54 55 55 55 55 55 55 55 55 56 56 56 57 57 57 58 58 58 59 59 60 60 60 61 61 62 62 63 63 64 65 65 66 67 68 69 70 71 72
81 79 78 76 74 73 72 71 70 68 67 65 65 64 63 62 62 61 59 58 57 57 56 56 56 56 56 55 55 55 54 53 53 53 54 54 54 54 53 52 51 52 52 52 51 52 52 53 53 53 53 53 53 53 53 53 54 54 55 55 55 56 56 56 57 57 57 57 58 58 58 59 59 59 60 60 61 62 62 63 64 64 65 66 67 68
77 76 74 73 71 70 69 68 67 66 65 64 63 62 62 61 60 59 58 57 56 55 55 54 54 54 54 54 53 53 52 51 51 51 52 52 53 52 51 50 50 50 50 50 50 50 51 51 52 51 51 51 51 51 51 52 52 53 53 53 53 54 54 54 55 55 55 56 56 56 56 57 57 57 58 58 59 59 59 60 60 61 62 63 63 64
74 73 71 70 69 67 66 65 64 63 62 62 61 61 60 59 59 58 57 56 55 54 53 53 53 53 53 52 52 51 50 50 49 50 50 50 51 51 50 49 48 48 49 49 49 49 49 50 50 50 49 49 49 49 50 50 51 51 51 51 52 52 52 53 53 53 54 54 54 54 54 55 55 55 56 56 56 57 57 57 58 58 59 60 60 61
71 70 69 68 66 65 64 63 62 61 60 60 59 59 58 58 57 56 55 54 53 53 52 51 51 51 51 51 51 50 49 48 48 48 48 49 50 49 49 48 47 47 48 48 48 48 48 48 48 48 48 47 47 48 48 49 49 49 50 50 50 50 51 51 51 52 52 52 52 52 53 53 53 54 54 54 54 55 55 55 56 56 56 57 58 58
69 67 66 65 64 63 62 61 60 59 58 57 57 57 56 56 55 54 54 53 52 51 51 50 50 50 50 50 49 49 48 48 47 47 47 48 48 48 48 47 46 46 47 47 47 47 47 47 47 46 46 46 46 46 47 47 48 48 48 48 49 49 49 50 50 50 50 50 51 51 51 51 52 52 52 53 53 53 53 53 54 54 54 55 55 56
66 65 64 63 62 61 60 59 58 57 56 55 55 54 54 53 53 53 52 52 51 50 50 49 49 49 49 49 49 48 48 47 46 46 46 46 47 47 47 46 46 45 46 46 47 46 46 46 46 45 44 44 44 45 45 46 46 47 47 47 47 47 48 48 48 49 49 49 49 49 49 50 50 50 51 51 51 51 52 52 52 52 53 53 53 54
64 63 62 61 60 59 58 57 57 56 55 54 53 52 52 51 51 51 51 51 50 50 49 48 48 49 48 48 48 48 47 46 46 45 44 45 45 46 47 46 45 45 45 46 46 46 46 46 45 44 43 43 43 43 44 44 45 45 45 45 46 46 46 47 47 47 48 47 48 48 48 48 48 49 49 49 50 50 50 50 50 51 51 51 52 52
62 61 60 59 58 57 56 56 55 54 53 52 51 50 50 49 49 48 49 49 49 48 48 48 48 48 48 48 47 47 47 46 45 44 43 43 44 45 45 45 44 44 44 45 46 46 46 45 44 43 42 42 42 42 43 43 44 44 44 44 44 45 45 46 46 46 46 46 46 46 46 46 47 47 47 48 48 48 48 49 49 49 50 50 50 51
61 59 58 57 56 55 55 54 53 53 52 51 50 49 48 47 47 46 46 47 47 47 47 47 47 47 47 47 47 47 47 46 45 43 42 42 43 43 44 43 43 43 43 44 45 45 45 45 44 42 41 41 41 41 41 42 42 42 42 43 43 43 44 44 45 45 45 45 45 45 45 45 45 46 46 46 47 47 47 47 48 48 48 49 49 49
59 58 57 56 55 54 53 52 52 51 50 49 48 47 47 46 45 45 45 45 45 45 45 45 46 46 46 46 46 47 47 46 45 43 41 41 41 42 42 42 42 42 42 42 43 44 45 45 43 42 41 40 40 40 40 41 41 41 41 41 42 42 42 43 43 44 44 43 43 43 44 44 44 44 45 45 45 45 46 46 46 47 47 47 47 48
58 57 55 54 53 52 51 50 50 49 48 47 47 46 45 44 44 43 43 43 43 43 43 43 44 44 45 45 45 45 46 46 45 43 41 40 40 41 41 41 41 41 41 41 42 43 44 44 43 42 41 40 40 40 40 40 40 40 40 40 41 41 41 42 42 42 42 42 42 42 42 43 43 43 43 43 44 44 44 45 45 45 46 46 46 47
56 55 54 53 52 51 50 49 48 47 46 45 45 44 43 43 42 42 41 41 41 41 41 41 41 42 43 43 43 44 45 45 44 43 41 40 40 41 41 41 40 40 40 40 41 42 43 43 43 42 41 40 40 40 39 39 39 39 39 39 40 40 40 40 41 41 41 41 41 41 41 41 41 42 42 42 42 43 43 43 44 44 44 45 45 45
54 54 53 52 50 49 48 47 46 45 44 43 43 42 41 41 40 40 39 39 39 39 39 39 39 40 41 41 42 42 43 44 43 42 41 40 40 41 41 41 40 40 39 39 39 40 42 42 42 42 41 40 40 39 39 38 38 38 38 38 39 39 39 39 40 40 40 40 40 40 40 40 40 41 41 41 41 41 42 42 42 43 43 43 44 44
53 52 51 50 49 48 46 45 44 43 42 42 41 40 39 39 38 38 37 37 37 37 37 37 37 38 39 39 40 41 42 42 42 41 40 40 40 40 41 41 41 40 39 39 39 39 40 41 42 41 41 40 40 39 39 38 37 38 38 38 38 38 38 38 39 39 39 39 39 39 39 39 39 39 40 40 40 40 40 41 41 42 42 42 43 43
51 50 49 48 47 46 45 44 43 42 41 40 39 38 38 37 36 36 35 35 35 35 35 35 35 36 36 37 38 39 40 40 40 40 39 39 39 40 41 41 41 41 40 39 38 38 39 40 40 41 41 40 40 39 38 37 37 37 37 37 37 37 37 37 38 38 38 38 38 38 38 38 38 38 38 39 39 39 39 40 40 41 41 41 42 42
49 48 47 46 45 44 43 42 41 41 40 39 38 38 37 36 35 35 34 34 34 34 33 34 34 34 35 35 36 37 38 39 39 39 38 38 38 39 40 41 42 42 41 40 40 39 39 39 39 40 40 40 40 39 38 37 37 37 37 37 37 37 36 37 37 37 37 37 37 37 37 37 37 37 38 38 38 38 38 39 39 40 40 40 41 41
47 46 45 44 43 42 42 41 40 40 39 38 38 37 36 36 35 34 34 33 33 33 33 33 33 33 33 34 34 35 36 37 37 37 37 37 37 38 39 40 41 42 42 41 41 40 39 39 39 39 39 40 40 39 38 37 37 37 37 36 36 36 36 36 36 36 37 37 36 36 36 36 36 37 37 37 37 37 37 38 38 39 39 40 40 40
46 45 44 43 42 41 40 40 39 39 38 38 37 37 36 36 35 35 34 34 33 33 33 33 32 32 33 33 33 34 35 36 36 36 36 36 36 36 37 38 40 41 41 42 42 41 40 39 39 39 39 39 39 39 38 38 37 37 36 36 36 36 35 35 36 36 36 36 36 36 35 36 36 36 36 36 36 36 36 37 37 38 38 39 39 40
44 43 42 41 41 40 39 39 39 38 38 38 37 37 36 36 35 35 35 34 34 33 33 33 33 33 33 33 33 34 34 35 35 35 35 35 35 35 36 37 38 40 41 42 42 42 41 40 39 38 38 38 38 38 38 38 37 37 36 35 35 35 35 35 35 35 36 36 35 35 35 35 35 35 35 35 35 35 36 36 36 37 37 38 38 39
42 42 41 40 40 39 39 38 38 38 38 37 37 37 36 36 35 35 35 35 35 34 34 33 33 33 34 34 34 34 34 34 34 34 34 34 34 34 34 35 36 38 39 41 42 42 42 41 40 38 37 37 37 37 37 38 37 37 36 35 35 34 34 35 35 35 35 35 35 35 35 35 34 34 35 35 35 35 35 35 35 36 36 37 37 38
41 40 40 40 39 39 38 38 38 38 38 38 37 37 36 36 36 35 35 35 35 35 34 34 34 34 34 34 34 34 34 34 34 33 33 33 33 33 33 34 35 36 38 40 41 42 42 42 40 38 37 36 36 36 37 37 37 36 36 35 34 34 34 34 34 35 35 35 35 35 34 34 34 34 34 34 34 34 34 35 35 35 35 36 36 37
40 39 39 39 39 39 38 38 38 38 38 38 37 37 37 36 36 36 36 36 36 35 35 35 34 35 35 35 35 35 34 34 34 33 33 33 33 33 33 33 34 35 37 39 40 41 42 42 40 39 37 35 35 35 36 36 36 36 36 35 34 33 33 34 34 34 34 34 34 34 34 34 34 34 34 34 34 34 34 34 34 34 34 35 35 36
39 39 39 39 39 39 39 38 38 38 38 38 38 37 37 37 37 36 37 37 37 36 36 36 35 35 35 36 35 35 35 35 34 34 34 33 33 33 33 33 34 35 36 37 39 40 41 41 40 38 36 35 34 35 35 35 36 35 35 34 34 33 33 33 33 34 34 34 34 34 34 34 34 34 34 34 34 34 33 33 33 33 34 34 34 35
38 38 38 39 39 39 39 39 39 39 38 38 38 38 38 38 37 37 37 38 38 38 37 37 37 37 37 36 36 36 36 35 35 35 34 34 34 33 33 34 34 35 36 37 38 39 40 40 39 38 36 35 34 34 34 35 35 34 34 33 33 33 33 33 33 33 34 34 34 34 34 34 34 34 34 34 33 33 33 33 32 32 33 33 34 34
38 38 38 39 39 39 39 39 39 39 39 39 39 39 39 39 39 39 39 39 39 39 39 38 38 38 38 37 37 37 37 36 36 35 35 34 34 34 34 34 34 35 35 36 37 38 38 38 38 37 35 34 34 34 34 34 34 33 33 33 33 32 32 32 33 33 33 34 34 34 34 34 34 34 34 34 33 33 32 32 32 32 32 32 33 34
38 38 38 39 39 39 39 40 40 40 40 40 40 40 40 40 40 40 40 40 40 40 40 40 39 39 39 38 38 38 37 37 36 36 35 35 35 35 34 34 34 35 35 35 36 36 37 37 36 35 34 34 33 33 33 33 32 32 32 32 32 32 32 32 32 33 33 33 34 34 34 34 34 34 34 33 33 33 32 32 32 32 32 32 32 33
37 38 38 39 39 39 40 40 40 41 41 41 41 41 41 41 41 41 41 41 41 40 40 40 40 40 39 39 38 38 38 37 37 36 36 35 35 35 34 34 34 34 34 35 35 35 35 35 35 34 34 33 33 32 32 32 31 31 31 31 31 31 32 32 32 32 33 33 34 34 34 34 34 34 33 33 33 32 32 32 32 32 32 32 32 33
37 38 38 39 39 40 40 40 41 41 41 41 42 41 41 41 41 41 41 41 41 41 41 41 40 40 40 39 38 38 38 37 37 36 36 35 35 35 34 34 34 34 34 34 34 34 34 34 33 33 33 32 32 32 31 31 30 30 30 30 30 31 31 32 32 32 32 33 33 33 34 34 33 33 33 33 33 33 33 32 32 33 32 32 32 32
37 38 38 39 39 40 40 41 41 41 42 42 41 41 41 41 40 40 40 40 40 41 41 41 41 40 40 39 39 38 38 37 37 37 36 35 35 35 34 34 34 34 33 33 33 33 33 32 32 32 31 31 31 30 30 30 29 29 29 29 30 31 31 31 32 32 32 32 33 33 33 33 33 33 33 33 33 33 33 33 33 33 33 33 32 32
37 38 38 39 40 40 41 41 41 41 42 41 41 41 40 40 40 40 40 40 40 40 40 40 40 40 40 39 38 38 37 37 37 36 36 35 35 35 34 34 33 33 33 33 32 32 32 31 31 30 30 30 29 29 29 28 28 28 29 29 30 30 31 31 31 32 32 32 32 32 33 33 33 33 33 33 33 33 33 33 33 33 33 33 32 32
37 38 38 39 40 40 41 41 41 41 41 41 41 40 40 39 39 39 39 39 40 40 40 40 40 40 40 39 39 38 37 37 36 36 36 35 35 35 34 33 33 32 32 32 32 31 30 30 29 29 28 28 28 28 28 28 28 28 29 29 30 30 30 31 31 31 31 31 32 32 32 32 33 33 33 33 33 33 33 33 33 33 33 33 33 32
Wind_Direction
287 287 286 286 286 285 285 285 284 284 284 283 283 282 282 281 281 280 280 279 279 278 277 277 276 276 276 275 275 274 274 274 273 273 272 272 271 271 270 270 269 269 268 268 268 267 267 267 266 266 266 266 265 265 265 265 265 264 264 264 264 263 263 263 263 263 262 262 263 263 263 263 262 262 262 261 261 260 260 259 259 258 258 258 257 257
288 288 288 287 287 287 286 286 285 285 285 284 284 283 283 282 282 281 280 280 279 279 278 278 277 277 277 276 276 275 275 274 274 273 273 272 272 271 270 270 269 269 269 268 268 267 267 267 266 266 266 265 265 265 265 265 264 264 264 263 263 263 263 263 262 262 262 262 262 262 262 262 262 262 261 261 261 261 260 260 259 259 258 258 258 257
290 290 289 289 288 288 288 287 286 286 286 285 285 284 284 283 283 282 281 281 280 280 279 279 278 278 278 277 277 276 275 275 274 274 273 273 272 271 271 270 270 269 269 268 268 268 267 267 266 266 266 265 265 265 264 264 264 264 263 263 263 263 262 262 262 262 261 261 261 261 261 261 261 261 261 261 260 260 260 260 260 259 259 258 258 258
292 291 291 290 290 289 289 288 288 287 287 286 286 285 285 284 284 283 282 282 281 281 281 280 280 279 279 278 277 277 276 275 275 274 274 273 273 272 271 271 271 270 270 269 268 268 267 267 266 266 266 265 265 265 264 264 264 263 263 263 262 262 262 262 261 261 261 260 260 260 260 260 260 260 260 260 260 259 259 259 259 259 259 258 258 258
293 292 292 292 291 291 290 290 289 289 288 287 287 286 286 285 285 284 283 283 283 282 282 281 281 280 279 278 278 277 277 276 275 275 274 273 273 273 272 272 271 271 270 269 269 268 268 267 267 266 266 265 265 265 264 264 264 263 263 262 262 262 261 261 261 260 260 260 260 259 259 259 259 259 259 259 258 258 258 258 258 258 258 258 258 257
294 294 293 293 292 292 291 291 290 290 289 288 288 287 287 286 285 285 284 284 283 283 283 282 281 280 280 279 278 278 277 276 276 275 274 274 273 273 272 272 271 271 270 270 269 269 268 268 267 267 266 266 265 265 264 264 263 263 263 262 262 261 261 261 260 260 260 259 259 259 259 259 258 258 258 258 258 258 257 257 257 257 257 257 257 257
295 295 294 294 293 293 292 292 291 290 290 289 289 288 287 287 286 286 285 285 284 284 283 282 281 281 280 279 279 278 277 277 276 275 275 274 274 273 273 272 272 271 271 270 270 269 268 268 267 267 266 266 265 265 264 264 263 263 262 262 262 261 261 260 260 260 259 259 259 259 258 258 258 258 257 257 257 257 257 257 256 256 256 256 256 256
296 296 295 295 294 293 293 292 291 291 290 290 289 289 288 287 287 286 286 285 284 284 283 282 282 281 280 280 279 278 278 277 276 276 275 275 274 273 273 272 272 271 271 270 270 269 269 268 268 267 267 266 265 265 264 264 263 263 263 262 262 261 261 260 260 260 259 259 259 258 258 258 258 257 257 257 257 256 256 256 256 256 255 255 255 255
297 296 296 295 295 294 293 293 292 291 291 290 290 289 289 288 287 287 286 285 285 284 283 283 282 281 280 280 279 278 278 277 277 276 275 275 274 274 273 272 272 271 271 270 270 269 269 268 268 267 267 266 266 265 265 264 264 263 263 262 262 262 261 261 260 260 259 259 258 258 258 258 257 257 257 257 256 256 256 256 255 255 255 255 254 254
297 297 296 295 295 294 294 293 292 292 291 291 290 289 289 288 288 287 287 286 285 284 284 283 282 282 281 280 279 279 278 277 277 276 276 275 275 274 273 273 272 272 271 270 270 269 269 268 268 267 267 266 266 265 265 265 264 264 263 263 262 262 261 261 260 260 259 259 259 258 258 257 257 257 257 257 256 256 256 255 255 255 254 254 254 253
297 297 296 296 295 294 294 293 292 292 291 291 290 290 289 288 288 287 287 286 285 284 284 283 282 282 281 280 280 279 278 278 277 277 276 275 275 274 274 273 272 272 271 271 270 270 269 269 268 268 267 267 266 266 265 265 265 264 264 263 263 262 262 261 261 260 260 259 259 258 258 257 257 257 257 256 256 256 256 255 255 254 254 254 253 253
298 297 297 296 295 295 294 293 293 292 292 291 291 290 289 289 288 287 287 286 285 285 284 283 283 282 281 281 280 279 279 278 278 277 276 275 275 274 274 273 272 272 271 271 270 270 269 269 269 269 268 268 267 267 266 266 265 265 264 263 263 262 262 261 261 260 260 259 259 258 258 257 257 257 256 256 256 256 255 255 255 254 254 253 253 252
298 297 297 296 295 295 294 294 293 293 292 291 291 290 289 289 288 287 287 286 285 285 284 284 283 282 282 281 280 280 279 279 278 277 277 276 275 274 274 273 272 272 271 271 271 271 270 270 270 269 269 268 268 267 267 266 266 265 264 264 263 263 262 262 261 260 260 259 259 258 258 257 257 256 256 256 256 255 255 255 255 254 254 253 253 252
298 298 297 296 296 295 294 294 293 293 292 291 291 290 289 289 288 287 287 286 285 285 285 284 283 283 282 281 280 280 279 279 278 278 277 276 275 274 274 273 273 272 272 271 271 271 271 271 270 270 269 269 268 268 267 267 266 265 265 264 263 263 262 262 261 260 260 259 259 259 258 257 257 257 256 256 255 255 255 255 254 254 254 253 253 252
299 298 298 297 296 295 295 294 294 293 292 291 291 290 289 289 288 287 287 286 286 285 285 284 283 283 282 281 281 280 280 279 278 278 277 276 275 275 274 273 273 273 272 272 272 271 271 271 270 270 269 269 268 268 267 267 266 265 265 264 264 263 263 262 261 261 260 260 259 259 258 258 257 257 256 256 255 255 254 254 254 254 253 253 253 252
299 298 298 297 296 296 295 294 294 293 292 291 291 290 289 288 288 287 287 286 286 286 285 284 284 283 282 281 281 280 280 279 278 278 277 276 276 275 275 274 274 273 273 272 272 272 271 271 270 270 269 269 268 268 267 267 266 266 265 264 264 263 263 262 262 261 261 260 259 259 258 258 257 257 256 256 255 255 254 254 254 253 253 253 252 252
299 298 298 297 296 296 295 294 294 293 292 292 291 290 289 289 288 288 287 287 286 286 285 284 284 283 282 282 281 281 280 279 278 278 277 277 276 276 275 275 274 274 273 272 272 271 271 271 270 269 269 269 268 268 267 267 266 266 265 265 264 264 263 262 262 261 261 260 260 259 258 258 257 257 256 256 255 255 254 254 254 253 253 252 252 252
299 298 297 297 296 296 295 294 294 293 292 292 291 290 289 289 288 288 287 287 286 286 285 284 283 283 282 282 281 281 280 279 279 278 277 277 276 276 275 275 274 274 273 273 272 272 271 270 270 269 269 268 268 268 268 267 267 266 266 265 264 264 263 263 262 261 261 261 260 259 259 258 258 257 257 256 256 255 254 254 254 253 253 252 252 252
298 298 297 296 296 295 295 294 293 293 292 292 291 290 290 289 288 288 287 287 286 285 284 284 283 282 282 281 281 281 280 279 279 278 278 277 277 276 275 275 275 274 274 273 273 272 271 270 270 269 269 268 268 268 268 267 267 266 266 265 265 264 264 263 262 262 261 261 260 260 259 258 258 257 257 256 256 255 255 254 254 253 253 252 252 251
298 297 297 296 296 295 294 294 293 293 292 292 291 291 290 289 289 288 288 287 286 285 284 283 283 282 281 281 281 280 280 279 279 278 278 277 277 276 276 275 275 274 274 273 273 272 271 271 270 269 269 268 268 268 268 267 267 266 266 265 265 264 264 263 263 262 262 261 260 260 259 259 258 258 257 257 256 255 255 254 254 253 253 252 252 251
298 297 296 296 295 295 294 294 293 293 293 292 292 291 290 290 289 289 288 287 286 285 285 284 283 282 281 281 281 280 280 279 279 278 278 277 277 277 276 276 275 275 274 274 273 272 271 271 270 270 269 269 268 268 267 267 267 266 266 265 265 264 264 264 263 263 262 261 261 260 260 259 259 258 257 257 256 256 255 254 254 253 253 252 252 251
298 297 296 295 295 294 294 293 293 293 293 292 292 291 291 290 289 289 288 287 287 286 285 284 283 283 282 281 281 281 280 280 279 279 279 278 278 277 277 276 276 275 275 274 273 272 271 271 270 270 270 269 269 268 268 267 266 266 265 265 265 264 264 264 263 263 262 262 261 261 260 260 259 259 258 257 257 256 255 255 254 253 253 252 252 251
297 296 296 295 295 294 294 293 293 293 293 292 292 291 291 290 290 289 289 288 287 286 286 285 284 284 283 282 282 281 281 281 280 280 279 279 279 278 278 277 277 276 275 274 273 272 272 271 271 270 270 270 269 269 268 267 267 266 266 265 265 265 264 264 263 263 263 262 262 261 261 260 260 259 258 258 257 256 256 255 254 254 253 252 252 251
297 296 295 295 295 294 294 293 293 293 292 292 291 291 291 290 290 289 289 288 288 287 286 286 285 284 284 283 283 282 282 281 281 280 280 280 279 279 279 278 277 277 276 275 274 273 272 271 271 271 270 270 269 269 268 268 267 267 266 266 265 265 264 264 264 263 263 262 262 262 261 261 260 260 259 258 258 257 256 255 255 254 253 252 252 251
297 296 295 295 295 294 294 293 293 293 292 291 291 291 290 290 290 289 289 288 288 287 286 286 285 285 284 284 283 283 282 282 281 281 280 280 280 280 279 278 278 277 276 275 274 273 273 272 271 271 270 270 270 269 268 268 267 267 266 266 266 265 265 264 264 264 263 263 262 262 261 261 260 260 259 259 258 257 257 256 255 254 253 253 252 251
296 296 295 295 295 294 294 294 293 292 292 291 291 290 290 290 290 289 289 288 288 287 287 286 285 285 284 284 283 283 282 281 281 280 280 280 280 280 279 279 278 278 277 276 275 274 273 272 272 271 271 270 270 269 269 268 268 267 267 266 266 266 265 265 264 264 263 263 263 262 262 261 261 260 260 259 259 258 257 256 256 255 254 253 252 251
296 296 296 295 295 294 294 293 293 292 292 291 291 290 290 289 289 289 288 288 287 287 286 286 285 284 284 284 283 282 282 281 280 280 280 279 279 279 279 279 278 277 277 276 275 274 274 273 272 271 271 270 270 269 268 268 268 267 267 267 266 266 265 265 264 264 264 263 263 262 262 261 261 261 260 260 259 258 258 257 256 255 254 253 252 251
296 296 296 295 295 294 294 293 293 292 292 291 290 290 289 289 288 288 288 287 287 287 287 286 285 284 284 283 283 282 281 280 280 279 279 278 278 277 278 277 277 277 276 276 275 275 274 273 273 272 271 270 270 269 268 268 268 267 267 267 266 266 266 265 265 264 264 263 263 263 262 262 261 261 260 260 259 259 258 257 257 256 255 254 253 252
297 296 296 295 295 295 294 293 293 292 292 291 290 290 289 288 288 287 287 286 286 286 286 286 285 285 284 284 283 282 281 280 279 279 278 277 276 276 276 276 276 275 275 275 275 275 274 274 273 272 271 270 270 269 268 268 268 268 267 267 267 266 266 266 265 265 264 264 263 263 262 262 261 261 260 260 259 259 258 258 257 256 255 254 253 252
297 296 296 295 295 294 294 293 293 292 292 291 291 290 289 289 288 287 286 286 286 286 286 285 285 285 285 284 284 283 282 282 281 280 279 278 276 276 275 275 275 274 274 274 274 274 274 274 273 273 272 271 270 269 268 268 268 268 267 267 267 267 266 266 265 265 265 264 264 263 263 262 261 261 260 260 259 259 258 258 257 256 255 254 253 252
297 296 296 295 295 294 294 293 293 292 292 292 291 291 290 289 288 288 287 287 286 286 285 285 285 285 284 284 284 284 283 283 282 281 280 279 278 277 276 275 274 274 273 273 273 273 274 274 273 273 272 271 270 269 268 268 268 267 267 267 267 266 266 266 266 265 265 264 264 263 263 262 261 261 260 260 259 259 258 258 257 256 255 255 254 252
296 296 296 295 295 294 294 294 293 293 292 292 292 291 291 290 289 289 288 287 287 286 285 285 284 284 284 284 283 283 283 283 283 283 282 281 279 278 277 276 275 274 273 272 272 273 273 273 273 273 272 271 270 269 269 268 268 267 267 267 266 266 266 266 266 265 265 265 264 263 263 262 262 261 260 260 259 259 258 258 257 256 256 255 254 253
296 296 295 295 295 295 294 294 293 293 292 292 292 291 291 291 290 290 289 288 287 287 286 285 284 284 284 283 283 283 283 283 284 284 283 282 281 279 279 277 276 275 274 273 272 272 273 273 273 273 272 271 270 269 269 268 268 267 266 266 266 266 265 266 265 265 265 265 264 264 263 262 262 261 260 260 259 259 258 258 257 256 256 255 254 253
296 295 295 295 295 295 294 294 294 293 292 292 292 291 291 290 290 289 289 288 288 287 286 285 285 285 284 284 284 284 284 284 284 284 284 284 283 282 281 280 278 277 275 274 273 272 272 272 273 273 272 271 270 269 269 268 268 267 266 266 265 265 265 265 265 265 265 264 264 264 263 262 262 261 260 259 259 258 258 257 257 256 255 255 254 253
295 295 295 295 295 295 295 294 294 293 293 292 291 291 291 290 289 289 288 288 287 286 286 286 285 285 285 285 285 285 285 285 285 285 286 285 285 284 283 282 281 280 278 276 274 273 272 272 272 273 272 272 271 270 269 268 267 267 266 266 265 265 264 264 264 264 264 264 263 263 263 262 261 261 260 259 259 258 257 257 256 256 255 255 254 253
295 295 295 295 295 295 295 294 294 293 293 292 292 291 291 290 289 289 288 287 286 286 285 285 284 284 284 284 284 284 285 285 285 285 285 285 285 284 284 284 283 282 281 279 277 276 274 273 272 272 272 272 271 270 269 268 267 266 266 265 265 265 264 264 264 264 263 263 263 262 262 262 261 261 260 259 258 258 257 256 256 255 255 254 254 253
295 295 295 295 295 295 295 294 294 294 293 293 292 292 291 291 290 290 289 288 287 286 285 284 284 283 283 283 282 282 282 283 283 283 284 284 283 283 283 283 283 282 282 281 279 278 276 274 273 272 272 272 272 272 271 269 268 266 265 265 264 264 264 263 263 263 263 263 262 262 262 261 261 260 259 259 258 257 256 256 255 255 254 254 253 252
295 295 295 295 295 294 294 294 294 294 293 293 293 292 292 292 291 291 290 289 288 287 286 285 284 283 282 281 280 280 280 280 281 281 281 281 281 281 281 281 281 282 281 281 280 279 278 276 275 274 273 272 272 272 271 270 268 267 265 264 264 263 263 263 263 262 262 262 262 262 261 261 260 260 259 258 258 257 256 255 255 254 254 253 253 252
294 294 294 294 294 294 294 294 294 293 293 293 293 293 292 292 292 291 290 290 288 287 286 285 284 283 282 281 280 279 279 279 279 279 279 279 279 279 279 280 280 281 281 281 280 280 279 277 276 275 274 273 272 272 271 270 269 267 266 264 263 262 262 262 262 262 262 262 262 261 261 260 260 259 259 258 257 256 256 255 254 254 253 253 252 252
294 294 294 294 294 294 294 293 293 293 293 293 293 293 292 292 292 291 290 289 288 287 287 285 284 284 282 281 280 279 279 278 278 278 278 278 278 278 278 278 279 279 280 280 280 280 280 279 277 276 275 274 273 272 271 270 269 268 266 264 263 262 261 261 261 261 261 261 261 261 261 260 260 259 258 258 257 256 255 254 254 253 253 252 252 252
293 293 293 293 294 293 293 293 293 293 293 292 293 292 292 292 292 291 290 289 288 287 286 286 285 284 283 282 281 280 280 279 279 278 278 278 277 277 278 278 278 279 279 279 280 280 280 279 278 277 276 274 273 272 271 270 269 267 266 265 263 261 260 260 259 259 260 260 260 260 260 260 259 259 258 258 257 256 255 254 254 253 252 252 252 251
292 293 293 293 293 293 293 293 293 293 293 292 292 292 293 292 292 292 291 290 289 288 288 287 286 285 284 283 282 282 281 280 280 279 279 279 278 278 278 278 278 278 278 279 279 279 279 279 279 278 277 275 273 271 270 269 268 267 265 264 263 261 259 258 258 258 258 259 259 259 259 259 258 258 258 257 257 256 255 254 254 253 252 252 251 251
292 292 292 293 293 293 293 293 293 293 293 293 293 293 293 293 293 293 292 291 291 290 289 289 288 287 286 285 284 283 282 282 281 281 280 280 280 279 279 279 279 278 278 278 278 278 278 279 279 278 277 275 273 271 269 268 267 265 264 263 262 260 259 257 257 257 257 258 258 258 258 258 258 257 257 257 257 256 255 255 254 253 253 252 251 251
292 292 293 293 293 293 293 293 293 294 294 294 294 294 294 294 294 294 294 293 293 292 291 291 290 288 287 287 286 285 284 283 283 282 281 281 280 280 280 279 279 279 278 278 278 278 278 278 278 278 277 275 273 270 268 267 265 264 263 262 260 259 258 257 256 256 256 256 257 257 257 257 257 257 257 257 256 256 255 255 254 253 253 252 251 250
292 293 293 293 293 294 294 294 294 295 295 295 295 295 295 295 295 294 294 294 293 293 292 291 291 290 288 288 287 286 285 284 283 283 282 281 281 280 280 279 279 278 278 278 278 278 278 278 278 277 276 274 271 269 267 265 264 263 262 261 259 258 257 256 255 254 255 255 255 255 256 256 256 256 256 256 256 256 256 255 254 253 252 251 251 250
293 293 293 294 294 294 295 295 295 295 295 295 295 295 295 295 294 294 293 293 292 292 291 291 290 289 288 288 287 286 285 284 283 282 281 281 280 279 279 279 278 278 278 278 278 278 278 278 278 277 275 273 270 268 266 264 263 262 260 259 258 257 256 254 254 253 253 254 254 254 254 255 255 255 256 256 256 256 256 255 254 253 252 251 250 250
293 293 293 294 294 294 294 294 294 294 294 294 293 293 293 293 293 292 292 291 291 290 290 289 289 288 287 286 285 285 284 283 282 281 281 280 279 279 278 278 278 278 278 278 278 278 278 278 277 276 274 272 270 267 265 263 261 260 259 258 257 256 255 254 253 252 252 252 253 253 253 254 254 254 255 255 255 255 255 254 254 253 252 251 250 249
293 293 293 293 293 293 292 292 291 291 291 291 290 290 290 290 290 290 290 290 289 289 288 288 287 287 286 285 285 284 283 282 281 280 280 279 278 278 277 277 277 277 277 277 278 278 278 277 277 275 274 271 269 267 264 262 260 258 257 256 255 254 254 253 252 252 251 251 252 252 253 253 253 254 254 254 254 254 254 254 253 252 251 250 249 248
292 291 291 291 291 290 290 289 289 288 288 287 287 287 288 288 288 288 288 288 288 288 288 287 287 286 285 284 283 283 282 281 281 280 280 279 278 277 276 276 276 276 276 276 277 277 277 277 276 275 273 271 269 266 263 261 258 256 255 253 253 252 252 252 251 251 251 250 251 251 252 252 252 252 253 253 253 253 253 252 252 251 251 250 249 248
290 290 290 289 289 288 288 287 287 286 286 286 286 286 287 287 288 288 288 288 288 288 287 287 286 285 285 284 283 282 282 281 280 279 279 278 277 277 276 276 275 275 275 275 275 276 276 276 275 274 272 270 268 265 261 259 256 254 252 251 251 251 251 251 250 250 250 250 250 250 250 251 251 251 251 251 251 251 251 251 251 251 250 249 249 248
290 289 289 289 288 288 288 287 287 287 287 287 287 288 288 289 289 289 289 289 288 288 288 287 286 285 285 284 283 282 281 280 279 279 278 278 277 276 275 275 274 274 274 274 274 274 275 275 275 274 272 269 266 263 259 256 253 251 250 249 249 249 250 250 250 249 249 249 249 249 249 249 249 249 249 249 249 249 249 250 250 250 249 249 248 247
Height
10356 10351 10349 10346 10343 10339 10335 10331 10328 10324 10320 10314 10311 10308 10306 10302 10298 10294 10291 10288 10285 10281 10278 10275 10273 10271 10269 10268 10266 10264 10263 10261 10259 10258 10256 10254 10253 10251 10249 10248 10246 10246 10244 10244 10244 10244 10243 10244 10244 10244 10244 10245 10246 10247 10249 10250 10252 10254 10256 10258 10261 10263 10265 10268 10270 10273 10274 10277 10279 10282 10284 10287 10290 10293 10296 10299 10302 10305 10308 10311 10314 10317 10319 10322 10324 10327
10344 10341 10337 10334 10331 10328 10324 10318 10314 10312 10308 10304 10299 10295 10292 10289 10285 10281 10277 10273 10270 10267 10264 10262 10260 10258 10256 10254 10253 10250 10248 10247 10245 10243 10241 10239 10238 10236 10235 10234 10233 10232 10231 10231 10230 10230 10230 10230 10230 10231 10231 10232 10233 10234 10235 10236 10238 10240 10243 10244 10247 10249 10251 10254 10256 10258 10261 10263 10266 10268 10271 10273 10276 10278 10281 10284 10288 10291 10294 10296 10299 10303 10306 10309 10312 10314
10333 10329 10324 10321 10319 10316 10311 10306 10301 10298 10295 10291 10287 10283 10279 10275 10271 10267 10263 10259 10256 10253 10251 10249 10248 10246 10243 10241 10238 10236 10234 10233 10231 10229 10228 10226 10224 10223 10221 10220 10219 10218 10218 10218 10217 10217 10217 10217 10217 10218 10218 10219 10219 10221 10222 10223 10225 10227 10229 10231 10233 10235 10238 10239 10242 10244 10246 10249 10251 10254 10256 10259 10261 10264 10267 10270 10273 10276 10279 10282 10285 10288 10291 10295 10298 10301
10322 10318 10313 10309 10306 10302 10298 10293 10289 10284 10281 10277 10273 10269 10266 10262 10258 10253 10249 10246 10243 10240 10238 10236 10234 10233 10229 10226 10224 10222 10221 10219 10218 10216 10215 10213 10211 10210 10209 10208 10207 10206 10205 10204 10204 10204 10204 10204 10204 10205 10205 10206 10207 10208 10209 10210 10211 10213 10215 10218 10219 10222 10224 10226 10228 10230 10232 10234 10237 10239 10242 10244 10247 10250 10253 10256 10259 10262 10265 10268 10271 10274 10278 10281 10284 10288
10309 10306 10301 10297 10293 10288 10284 10279 10275 10271 10266 10263 10259 10256 10253 10248 10244 10239 10236 10233 10230 10228 10226 10224 10221 10219 10216 10213 10211 10209 10208 10207 10206 10204 10203 10201 10199 10198 10198 10196 10195 10194 10193 10193 10192 10192 10192 10192 10193 10193 10193 10194 10194 10195 10196 10198 10199 10201 10202 10204 10206 10208 10210 10212 10214 10216 10218 10220 10223 10224 10227 10229 10233 10235 10239 10242 10245 10248 10251 10254 10258 10261 10264 10268 10271 10274
10296 10293 10288 10284 10280 10275 10270 10266 10261 10257 10253 10249 10246 10243 10239 10235 10231 10227 10224 10221 10219 10216 10214 10211 10208 10206 10203 10201 10199 10198 10196 10195 10194 10193 10191 10190 10189 10188 10187 10186 10184 10183 10182 10181 10181 10180 10180 10180 10181 10181 10182 10182 10183 10184 10184 10186 10187 10188 10189 10191 10193 10195 10197 10199 10201 10203 10205 10207 10209 10211 10213 10216 10218 10221 10224 10227 10231 10234 10237 10241 10244 10247 10251 10254 10258 10261
10283 10279 10275 10271 10267 10263 10258 10253 10248 10243 10239 10236 10233 10229 10226 10222 10218 10214 10212 10209 10207 10204 10201 10198 10196 10194 10191 10190 10188 10187 10185 10184 10183 10181 10181 10179 10179 10178 10177 10176 10174 10173 10172 10171 10170 10169 10169 10169 10170 10170 10171 10171 10172 10173 10173 10174 10175 10176 10178 10179 10181 10183 10184 10186 10188 10191 10193 10194 10196 10198 10200 10203 10204 10207 10210 10213 10216 10220 10223 10227 10231 10234 10238 10241 10244 10248
10271 10266 10261 10258 10253 10249 10245 10239 10234 10230 10227 10223 10220 10216 10213 10209 10206 10203 10201 10198 10195 10192 10189 10187 10185 10183 10181 10179 10178 10176 10175 10174 10173 10171 10171 10170 10169 10168 10167 10166 10165 10164 10162 10161 10160 10160 10159 10159 10160 10160 10161 10161 10161 10162 10163 10163 10164 10165 10166 10168 10169 10171 10173 10175 10177 10179 10181 10183 10184 10186 10188 10190 10192 10194 10197 10199 10203 10206 10210 10214 10218 10221 10224 10228 10232 10235
10259 10254 10249 10244 10241 10236 10232 10227 10221 10218 10214 10212 10208 10205 10201 10198 10194 10192 10190 10187 10184 10181 10179 10177 10174 10173 10171 10169 10168 10166 10166 10164 10163 10162 10161 10160 10159 10159 10158 10157 10156 10154 10153 10152 10151 10151 10150 10150 10150 10151 10151 10151 10152 10152 10153 10153 10154 10156 10157 10158 10159 10161 10163 10164 10166 10168 10170 10172 10173 10175 10177 10179 10181 10183 10185 10188 10190 10194 10197 10201 10204 10208 10212 10216 10219 10223
10246 10242 10238 10233 10228 10224 10220 10215 10210 10205 10203 10200 10197 10194 10191 10188 10184 10182 10179 10176 10173 10171 10169 10168 10165 10163 10161 10159 10158 10158 10156 10156 10154 10154 10153 10151 10151 10150 10149 10148 10147 10146 10144 10144 10143 10142 10142 10141 10141 10142 10142 10143 10143 10143 10144 10144 10146 10147 10148 10149 10150 10151 10153 10154 10156 10158 10159 10161 10163 10165 10167 10168 10170 10172 10174 10176 10179 10182 10185 10188 10192 10196 10199 10203 10206 10210
10233 10229 10225 10221 10216 10212 10208 10204 10199 10195 10192 10188 10186 10183 10180 10178 10175 10173 10169 10166 10163 10161 10159 10158 10156 10154 10152 10150 10149 10149 10148 10147 10146 10146 10144 10143 10143 10141 10141 10139 10139 10138 10136 10136 10134 10134 10134 10134 10134 10134 10134 10134 10134 10135 10136 10136 10138 10138 10139 10140 10141 10143 10144 10145 10146 10148 10149 10151 10153 10155 10157 10159 10161 10163 10164 10166 10169 10171 10174 10177 10180 10183 10187 10191 10194 10198
10221 10217 10213 10209 10204 10200 10196 10193 10189 10186 10182 10179 10175 10173 10169 10168 10166 10163 10161 10158 10154 10153 10151 10149 10148 10146 10144 10142 10141 10140 10139 10139 10138 10137 10136 10135 10134 10134 10133 10132 10131 10129 10128 10128 10127 10127 10126 10126 10126 10126 10126 10126 10127 10128 10128 10129 10129 10130 10131 10132 10133 10134 10135 10136 10138 10139 10140 10142 10143 10145 10147 10149 10151 10153 10155 10157 10159 10161 10164 10166 10169 10172 10176 10179 10183 10186
10209 10205 10202 10198 10193 10189 10186 10182 10179 10176 10173 10169 10166 10163 10160 10158 10156 10154 10152 10149 10147 10144 10143 10141 10139 10137 10136 10134 10133 10132 10132 10131 10130 10129 10128 10126 10126 10126 10126 10124 10123 10122 10121 10121 10120 10120 10120 10120 10120 10119 10119 10119 10119 10120 10121 10121 10122 10123 10123 10124 10124 10126 10126 10128 10129 10130 10131 10133 10134 10136 10138 10140 10142 10144 10146 10148 10150 10152 10154 10156 10159 10161 10164 10168 10171 10174
10197 10193 10189 10186 10182 10178 10175 10172 10169 10166 10163 10160 10158 10155 10153 10149 10147 10145 10143 10141 10139 10137 10136 10134 10131 10129 10128 10126 10126 10125 10125 10124 10123 10121 10119 10118 10118 10118 10118 10118 10116 10115 10114 10114 10114 10114 10114 10114 10113 10113 10113 10113 10113 10113 10114 10114 10114 10115 10116 10116 10117 10118 10119 10119 10121 10122 10123 10124 10126 10128 10129 10131 10133 10136 10138 10139 10141 10144 10146 10148 10149 10152 10154 10158 10161 10164
10186 10182 10178 10174 10170 10167 10164 10162 10159 10157 10154 10151 10149 10147 10144 10141 10139 10138 10136 10133 10131 10130 10129 10126 10124 10122 10119 10118 10118 10119 10118 10118 10116 10114 10112 10111 10111 10111 10111 10111 10109 10109 10109 10109 10108 10108 10108 10108 10107 10106 10106 10106 10106 10106 10106 10107 10108 10108 10108 10109 10109 10110 10111 10112 10113 10114 10115 10117 10118 10120 10121 10123 10125 10127 10129 10131 10133 10135 10137 10139 10141 10143 10146 10148 10151 10154
10176 10172 10168 10163 10160 10157 10154 10153 10150 10148 10145 10143 10141 10139 10136 10134 10131 10130 10129 10126 10124 10123 10121 10119 10117 10114 10113 10111 10111 10112 10112 10111 10109 10107 10105 10104 10103 10104 10104 10104 10103 10103 10103 10103 10103 10103 10102 10101 10101 10100 10099 10099 10099 10100 10100 10101 10101 10101 10102 10103 10103 10103 10104 10105 10106 10107 10108 10109 10111 10113 10114 10116 10118 10119 10121 10123 10125 10127 10129 10131 10133 10135 10137 10139 10142 10144
10168 10163 10158 10154 10151 10148 10145 10143 10141 10139 10137 10135 10133 10131 10129 10126 10124 10123 10121 10120 10118 10116 10115 10113 10111 10108 10106 10104 10104 10105 10105 10104 10103 10101 10099 10098 10097 10098 10098 10098 10097 10096 10096 10097 10097 10096 10096 10096 10094 10094 10093 10093 10093 10094 10094 10094 10094 10095 10096 10096 10096 10097 10098 10098 10099 10100 10101 10103 10104 10105 10107 10108 10110 10112 10113 10115 10117 10119 10121 10123 10125 10127 10129 10131 10133 10136
10159 10154 10149 10146 10143 10139 10137 10134 10133 10131 10129 10128 10125 10123 10121 10119 10118 10116 10115 10114 10112 10111 10109 10107 10104 10102 10100 10098 10098 10098 10099 10098 10096 10094 10093 10091 10091 10091 10092 10092 10091 10091 10091 10091 10091 10091 10091 10089 10089 10088 10088 10088 10088 10088 10088 10089 10089 10089 10089 10090 10090 10091 10091 10092 10093 10094 10095 10096 10098 10099 10100 10101 10103 10104 10106 10108 10109 10111 10113 10115 10118 10119 10121 10123 10126 10128
10151 10146 10143 10139 10136 10133 10129 10127 10125 10123 10122 10120 10118 10116 10114 10112 10111 10110 10109 10108 10106 10104 10103 10101 10098 10096 10095 10093 10091 10091 10093 10092 10091 10089 10087 10086 10084 10085 10086 10086 10086 10085 10085 10084 10085 10085 10084 10084 10083 10083 10083 10083 10083 10083 10083 10083 10083 10083 10084 10084 10084 10085 10086 10086 10087 10088 10089 10090 10091 10092 10094 10095 10096 10098 10099 10101 10103 10104 10106 10108 10110 10112 10114 10116 10118 10121
10143 10139 10135 10132 10129 10126 10123 10119 10118 10116 10115 10113 10111 10109 10107 10105 10104 10103 10102 10101 10100 10098 10097 10095 10093 10091 10089 10088 10086 10086 10086 10086 10085 10083 10082 10080 10079 10079 10080 10081 10081 10080 10079 10079 10079 10079 10079 10078 10077 10077 10078 10078 10078 10078 10078 10078 10078 10078 10078 10078 10079 10079 10080 10081 10081 10082 10083 10084 10085 10086 10088 10089 10090 10092 10093 10095 10096 10098 10100 10102 10103 10105 10107 10109 10111 10113
10135 10131 10128 10126 10123 10120 10116 10113 10111 10109 10108 10106 10104 10103 10100 10099 10098 10096 10096 10094 10093 10092 10091 10089 10087 10085 10084 10083 10081 10081 10081 10081 10080 10078 10076 10074 10073 10073 10074 10076 10075 10074 10074 10074 10074 10074 10073 10072 10072 10072 10073 10073 10073 10073 10073 10073 10073 10073 10073 10073 10074 10074 10074 10075 10076 10076 10078 10079 10079 10081 10082 10083 10084 10086 10088 10089 10090 10092 10094 10096 10097 10099 10101 10103 10104 10107
10128 10124 10120 10118 10117 10114 10111 10108 10105 10103 10102 10100 10098 10096 10094 10093 10091 10090 10089 10088 10087 10086 10084 10083 10081 10079 10078 10077 10076 10076 10076 10076 10074 10073 10071 10069 10068 10068 10069 10070 10070 10069 10069 10069 10069 10068 10068 10067 10067 10067 10068 10068 10068 10068 10068 10068 10068 10068 10068 10068 10069 10069 10069 10070 10071 10071 10072 10073 10074 10075 10076 10078 10079 10080 10081 10083 10084 10086 10088 10089 10091 10093 10094 10096 10098 10101
10120 10117 10114 10111 10109 10107 10104 10102 10099 10098 10096 10095 10093 10090 10088 10087 10086 10084 10083 10082 10081 10079 10078 10077 10076 10074 10073 10071 10071 10070 10070 10070 10069 10068 10066 10064 10063 10063 10064 10064 10064 10064 10063 10063 10063 10063 10063 10062 10062 10063 10063 10063 10064 10063 10063 10063 10063 10063 10063 10063 10064 10064 10065 10065 10066 10066 10067 10068 10069 10070 10071 10073 10074 10074 10076 10078 10079 10080 10082 10084 10086 10087 10089 10091 10093 10094
10113 10110 10107 10104 10103 10100 10098 10096 10094 10093 10091 10089 10088 10085 10083 10081 10080 10079 10077 10076 10075 10074 10073 10071 10070 10068 10067 10066 10066 10065 10064 10064 10064 10063 10062 10059 10058 10058 10058 10059 10059 10059 10058 10058 10058 10058 10058 10057 10057 10058 10058 10059 10059 10059 10058 10058 10058 10058 10058 10059 10059 10059 10060 10061 10061 10062 10063 10063 10064 10066 10066 10068 10068 10069 10071 10072 10073 10074 10076 10078 10079 10081 10083 10085 10087 10089
10107 10104 10101 10099 10096 10094 10093 10091 10089 10087 10086 10084 10082 10080 10078 10076 10075 10073 10072 10071 10069 10069 10068 10066 10065 10063 10061 10061 10061 10060 10059 10059 10059 10058 10057 10056 10054 10053 10053 10053 10054 10054 10053 10052 10052 10052 10052 10052 10053 10053 10054 10054 10054 10054 10054 10053 10053 10053 10054 10054 10054 10055 10056 10056 10056 10057 10058 10059 10059 10061 10062 10063 10063 10064 10066 10066 10068 10069 10071 10073 10074 10076 10078 10079 10081 10083
10100 10098 10096 10093 10091 10089 10087 10085 10084 10082 10081 10080 10078 10076 10074 10072 10070 10069 10067 10065 10064 10064 10063 10062 10060 10058 10057 10056 10055 10054 10054 10054 10054 10054 10053 10052 10050 10048 10048 10048 10049 10049 10048 10047 10047 10047 10047 10048 10048 10049 10049 10049 10049 10049 10049 10049 10049 10049 10049 10049 10050 10051 10051 10051 10052 10053 10053 10054 10055 10056 10057 10058 10059 10059 10061 10061 10063 10064 10066 10067 10069 10071 10073 10074 10076 10077
10094 10091 10089 10088 10085 10083 10081 10080 10078 10077 10076 10074 10074 10072 10071 10069 10067 10065 10063 10061 10060 10060 10059 10058 10055 10054 10053 10051 10051 10049 10049 10049 10049 10049 10049 10048 10046 10044 10043 10044 10044 10044 10043 10043 10042 10042 10042 10043 10043 10044 10045 10046 10045 10045 10044 10044 10044 10044 10045 10045 10046 10046 10046 10047 10047 10048 10049 10049 10051 10051 10053 10053 10054 10055 10056 10057 10058 10059 10061 10062 10064 10065 10067 10068 10070 10071
10088 10086 10084 10082 10080 10078 10076 10075 10073 10072 10071 10069 10068 10066 10066 10065 10064 10063 10060 10058 10056 10056 10054 10053 10051 10049 10048 10047 10046 10045 10044 10044 10045 10046 10046 10045 10043 10041 10040 10040 10041 10040 10039 10038 10037 10037 10037 10038 10039 10040 10041 10041 10041 10041 10041 10040 10040 10040 10041 10041 10041 10042 10042 10043 10043 10043 10044 10045 10046 10047 10048 10049 10049 10050 10051 10052 10053 10054 10056 10057 10058 10060 10061 10063 10064 10066
10081 10080 10078 10076 10075 10073 10071 10070 10068 10067 10066 10064 10063 10062 10061 10060 10059 10058 10056 10054 10054 10052 10049 10048 10046 10044 10043 10042 10041 10040 10039 10039 10040 10041 10042 10041 10040 10038 10037 10037 10037 10036 10036 10034 10033 10033 10032 10033 10034 10035 10036 10037 10037 10036 10036 10036 10036 10036 10036 10037 10037 10038 10038 10038 10038 10039 10040 10041 10042 10043 10044 10044 10045 10046 10047 10048 10049 10050 10051 10052 10053 10054 10056 10058 10059 10061
10076 10074 10073 10071 10069 10068 10066 10065 10063 10062 10060 10059 10058 10057 10056 10055 10054 10053 10051 10051 10049 10048 10046 10044 10041 10040 10039 10038 10036 10035 10034 10034 10035 10036 10038 10037 10036 10034 10033 10033 10033 10033 10032 10031 10030 10028 10028 10028 10029 10031 10031 10032 10033 10033 10033 10032 10033 10033 10033 10033 10033 10033 10033 10034 10034 10035 10036 10036 10038 10038 10039 10040 10041 10041 10043 10043 10044 10045 10046 10048 10049 10050 10051 10053 10054 10056
10069 10068 10067 10066 10064 10063 10062 10060 10059 10057 10056 10054 10053 10052 10051 10050 10049 10048 10046 10046 10045 10043 10041 10039 10038 10036 10035 10034 10033 10031 10029 10029 10029 10031 10033 10033 10031 10030 10029 10028 10028 10028 10028 10028 10026 10025 10024 10024 10024 10026 10027 10028 10028 10028 10028 10028 10029 10029 10029 10029 10029 10029 10029 10029 10030 10031 10031 10033 10033 10034 10035 10036 10036 10038 10038 10039 10040 10041 10042 10043 10044 10045 10046 10048 10049 10051
10064 10063 10062 10061 10059 10058 10057 10056 10054 10053 10051 10049 10048 10047 10046 10045 10044 10043 10043 10041 10041 10039 10038 10036 10034 10033 10032 10031 10029 10028 10025 10024 10025 10026 10028 10028 10027 10026 10024 10024 10024 10024 10024 10024 10023 10022 10021 10019 10020 10021 10023 10023 10024 10024 10024 10024 10025 10025 10025 10025 10025 10025 10026 10026 10026 10026 10028 10028 10029 10030 10031 10031 10033 10033 10034 10035 10036 10037 10038 10039 10039 10041 10042 10043 10045 10046
10059 10058 10057 10056 10054 10053 10053 10051 10050 10049 10047 10046 10044 10043 10043 10041 10040 10039 10038 10037 10036 10035 10034 10033 10032 10030 10028 10027 10025 10024 10022 10021 10021 10021 10023 10023 10022 10021 10020 10019 10019 10019 10020 10020 10019 10019 10018 10016 10016 10017 10018 10019 10019 10020 10020 10021 10021 10021 10021 10021 10021 10021 10022 10022 10023 10023 10023 10024 10025 10026 10027 10028 10028 10029 10030 10031 10032 10033 10033 10034 10035 10036 10038 10039 10040 10042
10055 10053 10052 10051 10050 10049 10048 10047 10046 10044 10043 10042 10041 10040 10039 10038 10037 10036 10035 10034 10033 10031 10030 10029 10028 10026 10025 10023 10022 10020 10019 10018 10018 10018 10018 10018 10018 10017 10016 10015 10015 10015 10016 10016 10016 10015 10014 10013 10013 10013 10014 10014 10015 10016 10016 10017 10018 10018 10018 10018 10018 10018 10018 10019 10019 10019 10019 10020 10021 10022 10023 10023 10024 10025 10026 10027 10028 10029 10029 10030 10031 10032 10033 10034 10036 10038
10051 10049 10048 10046 10045 10044 10043 10042 10041 10040 10039 10038 10037 10036 10035 10034 10034 10033 10032 10031 10029 10028 10027 10026 10024 10023 10022 10021 10019 10017 10016 10014 10014 10014 10014 10014 10014 10013 10012 10011 10011 10011 10011 10011 10011 10011 10011 10010 10009 10009 10009 10010 10011 10012 10013 10013 10014 10014 10014 10014 10014 10014 10014 10015 10015 10016 10016 10016 10018 10018 10019 10019 10020 10021 10022 10023 10024 10024 10026 10026 10027 10028 10029 10030 10031 10033
10046 10045 10044 10043 10041 10040 10039 10038 10037 10036 10035 10034 10033 10033 10031 10031 10030 10029 10029 10028 10027 10026 10024 10023 10022 10021 10019 10018 10017 10015 10013 10012 10011 10011 10011 10011 10011 10011 10009 10008 10007 10006 10006 10007 10007 10007 10006 10006 10006 10006 10006 10006 10006 10008 10009 10009 10010 10010 10010 10010 10011 10011 10011 10011 10011 10012 10012 10013 10014 10014 10015 10016 10017 10018 10018 10019 10020 10021 10021 10023 10023 10024 10025 10026 10027 10028
10042 10041 10039 10038 10038 10036 10035 10034 10033 10032 10031 10030 10029 10028 10028 10027 10026 10026 10025 10024 10023 10023 10022 10021 10019 10018 10017 10016 10014 10013 10012 10010 10009 10009 10009 10009 10008 10008 10006 10004 10003 10003 10003 10003 10003 10003 10003 10003 10003 10002 10002 10002 10003 10003 10004 10006 10006 10006 10006 10007 10007 10008 10008 10008 10008 10008 10009 10009 10010 10011 10011 10013 10013 10014 10014 10015 10016 10017 10018 10019 10019 10020 10021 10022 10023 10024
10038 10037 10036 10034 10033 10033 10031 10030 10029 10028 10027 10026 10025 10024 10024 10023 10023 10022 10021 10020 10019 10019 10018 10018 10016 10016 10014 10013 10012 10011 10009 10008 10008 10007 10006 10006 10006 10004 10004 10002 10001 9999 9999 9999 9999 9999 9999 9999 9998 9998 9999 9999 9999 10000 10001 10001 10002 10003 10003 10003 10004 10004 10004 10004 10004 10005 10005 10006 10006 10007 10008 10009 10009 10010 10011 10011 10013 10013 10014 10015 10016 10017 10018 10018 10019 10021
10034 10033 10032 10031 10029 10029 10028 10026 10025 10024 10023 10023 10021 10021 10020 10019 10019 10018 10018 10017 10016 10015 10014 10014 10013 10012 10011 10010 10009 10008 10008 10006 10006 10005 10004 10004 10003 10002 10001 9999 9998 9997 9996 9995 9995 9995 9995 9994 9994 9995 9995 9995 9996 9996 9997 9998 9998 9998 9999 9999 10000 10001 10001 10001 10001 10001 10002 10002 10003 10003 10004 10005 10006 10006 10007 10008 10009 10009 10011 10011 10012 10013 10014 10014 10016 10017
10031 10029 10028 10027 10026 10025 10024 10023 10022 10021 10020 10019 10018 10018 10016 10016 10015 10014 10014 10013 10013 10011 10011 10011 10009 10009 10008 10007 10006 10005 10004 10004 10003 10003 10002 10001 10000 9999 9998 9997 9996 9994 9993 9992 9991 9991 9991 9991 9991 9991 9992 9992 9992 9993 9993 9993 9994 9994 9995 9996 9996 9997 9998 9998 9998 9998 9998 9999 9999 10000 10001 10001 10002 10003 10004 10004 10005 10006 10007 10008 10009 10009 10011 10011 10012 10013
10027 10026 10024 10023 10023 10021 10021 10019 10018 10018 10016 10016 10014 10014 10013 10013 10012 10011 10010 10009 10009 10008 10008 10007 10006 10005 10004 10003 10003 10002 10001 10001 10000 9999 9999 9998 9997 9996 9995 9994 9993 9992 9991 9989 9989 9988 9988 9988 9988 9988 9988 9988 9989 9989 9989 9989 9990 9991 9991 9992 9993 9994 9994 9994 9994 9995 9995 9996 9996 9996 9997 9998 9999 9999 10000 10001 10002 10003 10004 10004 10005 10006 10007 10008 10009 10010
10024 10023 10021 10020 10019 10018 10017 10016 10015 10014 10013 10012 10011 10011 10010 10009 10009 10008 10007 10006 10005 10004 10004 10003 10003 10001 10001 9999 9999 9998 9998 9997 9996 9996 9995 9994 9994 9993 9992 9991 9990 9989 9988 9987 9986 9985 9984 9984 9984 9984 9984 9985 9985 9985 9986 9986 9986 9987 9988 9988 9989 9990 9991 9991 9991 9992 9992 9992 9993 9993 9994 9994 9995 9996 9997 9998 9998 9999 10000 10001 10002 10003 10004 10005 10006 10006
10020 10019 10018 10016 10016 10014 10013 10013 10011 10011 10009 10009 10008 10007 10006 10006 10005 10004 10003 10002 10001 10000 9999 9999 9998 9998 9996 9996 9995 9994 9994 9993 9993 9992 9991 9991 9990 9989 9989 9988 9987 9986 9986 9984 9983 9982 9981 9981 9981 9981 9981 9981 9982 9981 9982 9982 9983 9983 9984 9984 9986 9986 9987 9988 9988 9989 9989 9989 9989 9990 9990 9991 9992 9993 9994 9994 9995 9996 9997 9998 9999 10000 10001 10001 10003 10003
10016 10015 10014 10013 10012 10011 10010 10009 10008 10007 10006 10005 10004 10004 10003 10003 10001 10001 9999 9998 9997 9996 9996 9995 9994 9993 9993 9991 9991 9990 9989 9989 9989 9988 9988 9987 9986 9986 9985 9984 9984 9983 9983 9982 9981 9979 9979 9978 9978 9978 9978 9978 9978 9978 9978 9979 9979 9979 9980 9981 9982 9983 9984 9984 9985 9986 9986 9986 9986 9986 9987 9988 9989 9989 9990 9991 9992 9993 9994 9995 9996 9997 9998 9998 9999 10000
10013 10012 10011 10009 10009 10008 10006 10006 10004 10003 10003 10001 10001 10000 9999 9999 9998 9997 9996 9995 9994 9993 9992 9991 9990 9989 9988 9988 9987 9986 9986 9985 9985 9984 9984 9983 9983 9982 9981 9981 9980 9979 9979 9978 9977 9976 9976 9975 9974 9974 9974 9974 9974 9974 9974 9975 9976 9976 9977 9978 9978 9979 9980 9981 9982 9982 9982 9983 9983 9983 9984 9984 9986 9986 9987 9988 9989 9990 9991 9992 9993 9994 9994 9995 9996 9996
10009 10008 10008 10006 10005 10004 10003 10002 10001 10000 9999 9998 9997 9996 9996 9995 9994 9993 9993 9991 9990 9989 9988 9988 9987 9986 9984 9984 9983 9983 9982 9981 9981 9981 9980 9980 9979 9978 9978 9977 9976 9976 9975 9974 9974 9973 9972 9971 9971 9971 9971 9971 9971 9971 9971 9972 9972 9973 9973 9974 9975 9976 9976 9978 9978 9979 9979 9979 9979 9980 9981 9981 9982 9983 9984 9985 9986 9987 9988 9989 9989 9990 9991 9992 9993 9993
10007 10006 10004 10003 10002 10001 10000 9999 9998 9997 9996 9994 9994 9993 9993 9992 9991 9990 9989 9988 9987 9986 9985 9984 9983 9982 9981 9981 9980 9979 9978 9978 9977 9977 9976 9976 9976 9975 9974 9973 9973 9972 9971 9971 9970 9969 9969 9968 9968 9968 9968 9967 9967 9968 9968 9968 9969 9969 9970 9971 9971 9972 9973 9974 9974 9976 9976 9976 9976 9977 9978 9978 9979 9980 9981 9982 9983 9984 9984 9986 9986 9987 9988 9989 9989 9990
10004 10003 10001 10000 9999 9998 9997 9996 9995 9994 9993 9992 9991 9990 9989 9989 9988 9987 9986 9984 9984 9983 9981 9980 9979 9978 9978 9977 9976 9976 9974 9974 9973 9973 9973 9973 9972 9971 9971 9970 9969 9969 9968 9968 9966 9966 9965 9965 9964 9964 9964 9964 9964 9964 9964 9965 9966 9966 9966 9967 9968 9968 9969 9970 9971 9972 9973 9973 9973 9974 9974 9975 9976 9977 9978 9979 9980 9981 9981 9982 9983 9984 9984 9985 9986 9987
10001 10000 9999 9998 9996 9995 9994 9993 9992 9991 9990 9989 9988 9987 9986 9986 9985 9984 9983 9981 9980 9979 9978 9977 9976 9974 9974 9973 9973 9972 9971 9970 9969 9969 9969 9968 9968 9968 9967 9966 9966 9965 9964 9964 9963 9963 9962 9962 9961 9961 9961 9961 9961 9961 9961 9962 9962 9963 9963 9963 9964 9965 9966 9967 9968 9969 9969 9970 9970 9971 9971 9972 9973 9974 9975 9976 9977 9978 9978 9979 9979 9981 9981 9982 9983 9984
9998 9997 9996 9994 9994 9993 9991 9990 9989 9988 9986 9986 9984 9983 9983 9982 9981 9980 9979 9978 9976 9975 9974 9973 9972 9971 9970 9969 9969 9968 9968 9966 9966 9965 9964 9964 9964 9964 9963 9963 9962 9962 9961 9961 9960 9959 9959 9959 9958 9958 9958 9958 9958 9958 9958 9958 9959 9959 9959 9959 9961 9961 9963 9963 9964 9965 9966 9967 9968 9968 9969 9969 9970 9971 9972 9973 9974 9974 9975 9976 9976 9977 9978 9979 9980 9981
9995 9994 9993 9992 9990 9989 9988 9986 9985 9984 9983 9982 9981 9979 9979 9978 9977 9976 9975 9974 9973 9971 9970 9969 9968 9967 9966 9965 9964 9964 9964 9963 9962 9961 9961 9961 9960 9959 9959 9959 9959 9958 9958 9958 9957 9956 9956 9956 9955 9955 9955 9955 9955 9955 9954 9955 9955 9955 9956 9956 9957 9958 9959 9960 9961 9962 9963 9964 9964 9965 9966 9966 9967 9968 9968 9969 9970 9971 9972 9973 9973 9974 9975 9976 9977 9978